User: anonymous   Login
Location: Chervonnoye
(48.6000°N, 34.4000°E)
Time: 02:56:13
(UTC+00:00)
Language:

Dragsphere 1 - Orbit

View from above orbital plane
View from above orbital plane
View from above satellite
View from above satellite

Ground track
Ground track

The orbit data is extracted from the following two-line orbital elements,

1 00900U 64063C   21165.46778047  .00000230  00000-0  23590-3 0  9993
2 00900  90.1632  34.4095 0029588  50.3969  66.8969 13.73544173820148
Epoch (UTC): 14 June 2021 11:13:36
Eccentricity: 0.0029588
inclination: 90.1632°
perigee height: 965 km
apogee height: 1008 km
right ascension of ascending node: 34.4095°
argument of perigee: 50.3969°
revolutions per day: 13.73544173
mean anomaly at epoch: 66.8969°
orbit number at epoch: 82014

The dashed part of the orbit path shows where the satellite is in the earth's shadow,  

DLR